STARLINK-1596 (46141 NORAD) Tracking and Keplerian Element Data

This shows tracking and keplerian element data for the satellite.

Feedback or suggestion? Click here.




ElementValue
Catalog46141
NameSTARLINK-1596
Epoch Orbit187
Epoch Day336.91667824
Epoch Year2020
RAAN284.2431
Inclination52.9993
Eccentricity0.0003645
Argument of Perigee6.3898
Mean Anonmoly242.502
Mean Motion15.62779963
Decay Rate-0.00048475
L11 46141U 20057AA 20336.91667824 -.00048475 00000-0 -52594-3 0 9995
L22 46141 52.9993 284.2431 0003645 6.3898 242.5020 15.62779963 1877

Live tracking and technical data element details for STARLINK-1596 (NORAD 46141). STARLINK-1596 can be tracked NOW for your location showing map with azimuth and elevation plus other details from your city location.

Track the satellite on the map from your city or location and see movement details for azimuth, elevation, latitude, longitude, range, height, and movement on the map or in text.







IsCatalogInMostPopularTable: catalog: 46141, numindb: 19
Update: records affected: 1



GetName: 46141 STARLINK-1596

Hit Count: updated at: Thu, 03 Dec 2020 06:49:15 GMT